Location: Waco, TX
(31.5480°N, 97.1670°W)
Time: 00:52:43
(UTC-06:00)

ISS - Pass Details

Date: 21 January 2018
Orbit: 402 x 407 km, 51.6° (Epoch: 21 January)

Event Time Altitude Azimuth Distance (km) Brightness Sun altitude
Rises 20:42:12 0° 246° (WSW) 2,301 0.9 -35.7°
Enters shadow 20:43:03 - 249° (WSW) 1,968 0.5 -35.9°
Reaches altitude 10° 20:44:26 10° 258° (WSW) 1,446 - -36.2°
Maximum altitude 20:47:18 29° 320° (NW) 769 - -36.8°
Drops below altitude 10° 20:50:12 10° 23° (NNE) 1,452 - -37.4°
Sets 20:52:27 0° 35° (NE) 2,314 - -37.9°
